Location: Newark
(40.9833°N, 0.0333°W)
Time: 02:27:57
(UTC+00:00)

deb Explorer IX - Pass Details

Date: 28 October 2020
Orbit: 537 x 1105 km, 38.8° (Epoch: 02 December)

Event Time Altitude Azimuth Distance (km) Brightness Sun altitude
Rises 12:18:05 0° 272° (W) 3,905 ? 35.1°
Reaches altitude 10° 12:22:50 10° 245° (WSW) 2,957 ? 34.9°
Maximum altitude 12:25:34 12° 223° (SW) 2,766 ? 34.8°
Drops below altitude 10° 12:28:16 10° 201° (SSW) 2,916 ? 34.7°
Sets 12:32:55 0° 173° (S) 3,793 ? 34.5°
